XNO69E EGGD-LPFR

Flight info

Callsign XNO69E
Flight time N/A
Altitude 32000
Route EXMOR N92 DAWLY DCT BHD DCT SALCO DCT IBISU/N0453F350 DCT BALDA DCT ABUPI DCT ORVED DCT UPULO DCT ALAGU
Aircraft A321/M-SDE1E2E3FGHIRWY/LB1

Departure

Time 2026-05-04 17:54
Airport Bristol Airport (EGGD)

Arrival

Time N/A
Airport Faro - Gago Coutinho International Airport (LPFR)
Time Latitude Longitude Altitude Speed Heading
2026-05-04 17:24 51.38517 -2.71141 611 ft 0 kts 355°
2026-05-04 17:45 51.38495 -2.71139 616 ft 4 kts 357°
2026-05-04 17:46 51.38470 -2.71134 629 ft 4 kts 324°
2026-05-04 17:46 51.38459 -2.71104 625 ft 3 kts 267°
2026-05-04 17:46 51.38460 -2.71081 624 ft 0 kts 266°
2026-05-04 17:49 51.38460 -2.71084 625 ft 1 kts 266°
2026-05-04 17:49 51.38458 -2.71149 626 ft 10 kts 266°
2026-05-04 17:49 51.38452 -2.71307 620 ft 18 kts 266°
2026-05-04 17:49 51.38444 -2.71526 619 ft 22 kts 266°
2026-05-04 17:50 51.38433 -2.71780 606 ft 23 kts 266°
2026-05-04 17:50 51.38432 -2.71985 606 ft 18 kts 270°
2026-05-04 17:50 51.38426 -2.72189 611 ft 19 kts 267°
2026-05-04 17:50 51.38418 -2.72415 611 ft 21 kts 266°
2026-05-04 17:51 51.38409 -2.72648 620 ft 22 kts 266°
2026-05-04 17:51 51.38399 -2.72883 606 ft 20 kts 266°
2026-05-04 17:51 51.38392 -2.73078 605 ft 12 kts 266°
2026-05-04 17:51 51.38388 -2.73156 608 ft 0 kts 266°
2026-05-04 17:52 51.38388 -2.73160 608 ft 2 kts 266°
2026-05-04 17:52 51.38385 -2.73222 610 ft 12 kts 262°
2026-05-04 17:52 51.38326 -2.73330 624 ft 13 kts 195°
2026-05-04 17:53 51.38261 -2.73327 625 ft 7 kts 166°
2026-05-04 17:53 51.38221 -2.73269 623 ft 8 kts 110°
2026-05-04 17:53 51.38225 -2.73002 629 ft 56 kts 86°
2026-05-04 17:53 51.38265 -2.71992 624 ft 123 kts 86°
2026-05-04 17:54 51.38328 -2.70363 821 ft 157 kts 86°
2026-05-04 17:54 51.38386 -2.68646 1631 ft 154 kts 84°
2026-05-04 17:54 51.38434 -2.66931 2353 ft 156 kts 84°
2026-05-04 17:54 51.38494 -2.65109 2618 ft 173 kts 84°
2026-05-04 17:55 51.38568 -2.63091 2851 ft 192 kts 85°
2026-05-04 17:55 51.38646 -2.60881 3103 ft 209 kts 84°
2026-05-04 17:55 51.38730 -2.58425 3322 ft 230 kts 85°
2026-05-04 17:55 51.38609 -2.55760 3489 ft 256 kts 108°
2026-05-04 17:56 51.37655 -2.53314 4051 ft 267 kts 135°
2026-05-04 17:56 51.36077 -2.51740 4756 ft 272 kts 161°
2026-05-04 17:56 51.34209 -2.51423 5479 ft 272 kts 189°
2026-05-04 17:56 51.32458 -2.52520 6192 ft 273 kts 217°
2026-05-04 17:57 51.31223 -2.54803 6851 ft 275 kts 244°
2026-05-04 17:57 51.30767 -2.57765 7517 ft 278 kts 266°
2026-05-04 17:57 51.30652 -2.60868 8194 ft 281 kts 266°
2026-05-04 17:57 51.30552 -2.63995 8860 ft 283 kts 265°
2026-05-04 17:58 51.30452 -2.67149 9518 ft 286 kts 265°
2026-05-04 17:58 51.30345 -2.70341 10170 ft 289 kts 265°
2026-05-04 17:58 51.30074 -2.73640 10352 ft 310 kts 259°
2026-05-04 17:58 51.29707 -2.77149 10468 ft 331 kts 258°
2026-05-04 17:59 51.29315 -2.80864 10797 ft 343 kts 258°
2026-05-04 17:59 51.28963 -2.84657 11365 ft 348 kts 263°
2026-05-04 17:59 51.28912 -2.92481 12558 ft 355 kts 270°
2026-05-04 18:00 51.28996 -2.95097 12952 ft 358 kts 271°
2026-05-04 18:00 51.29112 -3.00373 13731 ft 360 kts 262°
2026-05-04 18:00 51.28806 -3.03016 14071 ft 359 kts 251°
2026-05-04 18:00 51.27878 -3.06715 14617 ft 359 kts 241°
2026-05-04 18:01 51.26653 -3.10190 15170 ft 360 kts 237°
2026-05-04 18:01 51.25325 -3.13601 15724 ft 363 kts 236°
2026-05-04 18:01 51.23999 -3.17054 16269 ft 366 kts 237°
2026-05-04 18:02 51.21521 -3.24164 17334 ft 372 kts 240°
2026-05-04 18:02 51.20325 -3.27840 17865 ft 374 kts 238°
2026-05-04 18:02 51.18821 -3.31220 18382 ft 375 kts 226°
2026-05-04 18:02 51.16876 -3.33971 18872 ft 375 kts 212°
2026-05-04 18:03 51.14580 -3.35926 19391 ft 373 kts 200°
2026-05-04 18:03 51.12078 -3.36995 19893 ft 374 kts 187°
2026-05-04 18:03 51.09489 -3.37444 20395 ft 376 kts 186°
2026-05-04 18:03 51.06879 -3.37882 20900 ft 377 kts 186°
2026-05-04 18:04 51.04255 -3.38330 21394 ft 379 kts 186°
2026-05-04 18:04 51.01628 -3.38785 21865 ft 381 kts 186°
2026-05-04 18:04 50.96325 -3.39714 22774 ft 385 kts 186°
2026-05-04 18:05 50.93653 -3.40179 23221 ft 387 kts 187°
2026-05-04 18:05 50.91004 -3.40639 23637 ft 389 kts 187°
2026-05-04 18:05 50.88306 -3.41105 23988 ft 391 kts 186°
2026-05-04 18:05 50.85594 -3.41570 24341 ft 393 kts 186°
2026-05-04 18:06 50.80123 -3.42508 25028 ft 397 kts 186°
2026-05-04 18:06 50.77377 -3.42977 25368 ft 399 kts 186°
2026-05-04 18:06 50.74604 -3.43451 25703 ft 401 kts 186°
2026-05-04 18:07 50.71819 -3.43932 26029 ft 403 kts 186°
2026-05-04 18:07 50.69021 -3.44413 26353 ft 405 kts 186°
2026-05-04 18:07 50.66208 -3.44897 26677 ft 407 kts 186°
2026-05-04 18:07 50.63377 -3.45382 26999 ft 409 kts 186°
2026-05-04 18:08 50.60533 -3.45865 27309 ft 411 kts 186°
2026-05-04 18:08 50.57682 -3.46351 27663 ft 412 kts 185°
2026-05-04 18:08 50.54827 -3.46839 28034 ft 413 kts 185°
2026-05-04 18:08 50.51968 -3.47332 28354 ft 414 kts 185°
2026-05-04 18:09 50.46215 -3.48311 28949 ft 418 kts 185°
2026-05-04 18:09 50.40414 -3.49280 29537 ft 421 kts 184°
2026-05-04 18:10 50.37485 -3.49663 29833 ft 423 kts 182°
2026-05-04 18:10 50.34546 -3.49884 30135 ft 423 kts 180°
2026-05-04 18:10 50.31598 -3.50005 30480 ft 422 kts 180°
2026-05-04 18:10 50.28658 -3.50087 30767 ft 423 kts 180°
2026-05-04 18:11 50.25739 -3.50174 31024 ft 424 kts 180°
2026-05-04 18:11 50.23186 -3.50271 31239 ft 425 kts 180°
2026-05-04 18:11 50.20256 -3.50411 31487 ft 427 kts 180°
2026-05-04 18:11 50.17282 -3.50573 31735 ft 428 kts 181°
2026-05-04 18:12 50.14342 -3.50741 31944 ft 430 kts 181°
2026-05-04 18:12 50.11363 -3.50915 32003 ft 424 kts 180°
2026-05-04 18:12 50.05515 -3.51243 32005 ft 419 kts 180°
2026-05-04 18:13 49.99693 -3.51571 32008 ft 418 kts 180°
2026-05-04 18:14 49.90961 -3.52037 32016 ft 418 kts 180°
2026-05-04 18:14 49.85138 -3.52346 32008 ft 418 kts 180°